Simultaneous Nadir Overpasses (SNOs) Predictions

Prediction of SNOs between GOES-15 and METOP-C Satellite Orbit:

Table of predicted SNOs for the next 14.0 days since TLE Epoch: 2/11/2023
Index Date Time (GOES-15) GOES-15 Lat,Lon METOP-C Lat,Lon Distance(km) Time Diff (sec)
1 02/12/2023 06:03:33 0.01,-128.27 -0.03,-128.57 32.92 80
2 02/14/2023 18:04:25 -0.02,-128.21 -0.07,-128.13 10.02 80
3 02/17/2023 06:02:47 0.03,-128.21 0.13,-127.73 54.62 80
4 02/18/2023 18:18:58 -0.03,-128.15 0.86,-132.29 471.92 80
5 02/19/2023 18:00:59 -0.03,-128.13 -0.24,-127.30 95.52 80
6 02/21/2023 06:17:19 0.03,-128.14 -0.82,-131.89 427.26 80
7 02/22/2023 05:59:19 0.03,-128.13 0.29,-126.89 140.36 80
8 02/23/2023 18:15:30 -0.03,-128.06 0.75,-131.44 386.13 80
9 02/24/2023 17:57:30 -0.03,-128.04 -0.37,-126.45 181.16 80
